Time,TemperatureF,DewpointF,PressureIn,WindDirection,WindDirectionDegrees,WindSpeedMPH,WindSpeedGustMPH,Humidity,HourlyPrecipIn,Conditions,Clouds,dailyrainin,SoftwareType,DateUTC
2013-06-17 00:00:00,73.8,65.8,30.05,SSW,203,5.0,-999.0,76,0.00,,,0.00,Wunderground v.1.15,2013-06-17 04:00:00,
2013-06-17 00:05:00,73.8,65.8,30.05,SSW,203,5.0,-999.0,76,0.00,,,0.00,Wunderground v.1.15,2013-06-17 04:05:00,
2013-06-17 00:10:00,73.8,65.8,30.06,SW,225,5.0,-999.0,76,0.00,,,0.00,Wunderground v.1.15,2013-06-17 04:10:00,
2013-06-17 00:15:00,73.7,65.7,30.06,SW,225,5.0,-999.0,76,0.00,,,0.00,Wunderground v.1.15,2013-06-17 04:15:00,
2013-06-17 00:20:00,73.7,66.0,30.06,SW,225,5.0,-999.0,77,0.00,,,0.00,Wunderground v.1.15,2013-06-17 04:20:00,
2013-06-17 00:25:00,73.5,65.8,30.06,SW,225,4.0,-999.0,77,0.00,,,0.00,Wunderground v.1.15,2013-06-17 04:25:00,
2013-06-17 00:30:00,73.4,65.7,30.06,SW,225,4.0,-999.0,77,0.00,,,0.00,Wunderground v.1.15,2013-06-17 04:30:00,
2013-06-17 00:35:00,73.3,66.0,30.06,SW,225,4.0,-999.0,78,0.00,,,0.00,Wunderground v.1.15,2013-06-17 04:35:00,
2013-06-17 00:40:00,73.1,65.8,30.06,SW,225,3.0,-999.0,78,0.00,,,0.00,Wunderground v.1.15,2013-06-17 04:40:00,
2013-06-17 00:45:00,73.0,66.1,30.05,SSW,203,3.0,-999.0,79,0.00,,,0.00,Wunderground v.1.15,2013-06-17 04:45:00,
2013-06-17 00:50:00,72.9,66.0,30.05,SSW,203,4.0,-999.0,79,0.00,,,0.00,Wunderground v.1.15,2013-06-17 04:50:00,
2013-06-17 00:55:00,72.9,66.0,30.05,SSW,203,5.0,-999.0,79,0.00,,,0.00,Wunderground v.1.15,2013-06-17 04:55:00,
2013-06-17 01:00:00,72.8,66.3,30.05,SW,225,4.0,-999.0,80,0.00,,,0.00,Wunderground v.1.15,2013-06-17 05:00:00,
2013-06-17 01:05:00,72.7,66.2,30.05,SSW,203,5.0,-999.0,80,0.00,,,0.00,Wunderground v.1.15,2013-06-17 05:05:00,
2013-06-17 01:10:00,72.6,66.1,30.05,SSW,203,4.0,-999.0,80,0.00,,,0.00,Wunderground v.1.15,2013-06-17 05:10:00,
2013-06-17 01:15:00,72.6,66.1,30.05,SSW,203,4.0,-999.0,80,0.00,,,0.00,Wunderground v.1.15,2013-06-17 05:15:00,
2013-06-17 01:20:00,72.6,66.1,30.05,SSW,203,5.0,-999.0,80,0.00,,,0.00,Wunderground v.1.15,2013-06-17 05:20:00,
2013-06-17 01:25:00,72.6,66.4,30.05,SSW,203,4.0,-999.0,81,0.00,,,0.00,Wunderground v.1.15,2013-06-17 05:25:00,
2013-06-17 01:30:00,72.6,66.4,30.05,SW,225,3.0,-999.0,81,0.00,,,0.00,Wunderground v.1.15,2013-06-17 05:30:00,
2013-06-17 01:35:00,72.6,66.4,30.05,SSW,203,3.0,-999.0,81,0.00,,,0.00,Wunderground v.1.15,2013-06-17 05:35:00,
2013-06-17 01:40:00,72.6,66.4,30.05,SSW,203,5.0,-999.0,81,0.00,,,0.00,Wunderground v.1.15,2013-06-17 05:40:00,
2013-06-17 01:45:00,72.8,66.6,30.04,SSW,203,5.0,-999.0,81,0.00,,,0.00,Wunderground v.1.15,2013-06-17 05:45:00,
2013-06-17 01:50:00,72.8,66.6,30.04,SSW,203,5.0,-999.0,81,0.00,,,0.00,Wunderground v.1.15,2013-06-17 05:50:00,
2013-06-17 01:55:00,72.8,66.6,30.04,SSW,203,5.0,-999.0,81,0.00,,,0.00,Wunderground v.1.15,2013-06-17 05:55:00,
2013-06-17 02:00:00,72.9,66.7,30.04,SSW,203,4.0,-999.0,81,0.00,,,0.00,Wunderground v.1.15,2013-06-17 06:00:00,
2013-06-17 02:05:00,73.0,66.8,30.04,SSW,203,5.0,-999.0,81,0.00,,,0.00,Wunderground v.1.15,2013-06-17 06:05:00,
2013-06-17 02:10:00,73.0,66.8,30.04,SSW,203,4.0,-999.0,81,0.00,,,0.00,Wunderground v.1.15,2013-06-17 06:10:00,
2013-06-17 02:15:00,73.1,66.9,30.04,SSW,203,4.0,-999.0,81,0.00,,,0.00,Wunderground v.1.15,2013-06-17 06:15:00,
2013-06-17 02:20:00,73.1,66.9,30.04,SSW,203,4.0,-999.0,81,0.00,,,0.00,Wunderground v.1.15,2013-06-17 06:20:00,
2013-06-17 02:25:00,73.1,66.9,30.04,SSW,203,4.0,-999.0,81,0.00,,,0.00,Wunderground v.1.15,2013-06-17 06:25:00,
2013-06-17 02:30:00,73.2,67.0,30.04,SW,225,5.0,-999.0,81,0.00,,,0.00,Wunderground v.1.15,2013-06-17 06:30:00,
2013-06-17 02:35:00,73.2,67.0,30.04,SW,225,4.0,-999.0,81,0.00,,,0.00,Wunderground v.1.15,2013-06-17 06:35:00,
2013-06-17 02:40:00,73.2,67.0,30.04,SW,225,4.0,-999.0,81,0.00,,,0.00,Wunderground v.1.15,2013-06-17 06:40:00,
2013-06-17 02:45:00,73.1,67.3,30.04,SSW,203,4.0,-999.0,82,0.00,,,0.00,Wunderground v.1.15,2013-06-17 06:45:00,
2013-06-17 02:50:00,73.0,67.2,30.04,SSW,203,3.0,-999.0,82,0.00,,,0.00,Wunderground v.1.15,2013-06-17 06:50:00,
2013-06-17 02:55:00,73.0,67.2,30.04,SW,225,3.0,-999.0,82,0.00,,,0.00,Wunderground v.1.15,2013-06-17 06:55:00,
2013-06-17 03:00:00,72.9,67.1,30.04,SW,225,3.0,-999.0,82,0.00,,,0.00,Wunderground v.1.15,2013-06-17 07:00:00,
2013-06-17 03:05:00,72.7,67.2,30.04,SW,225,3.0,-999.0,83,0.00,,,0.00,Wunderground v.1.15,2013-06-17 07:05:00,
2013-06-17 03:10:00,72.6,67.1,30.04,SW,225,3.0,-999.0,83,0.00,,,0.00,Wunderground v.1.15,2013-06-17 07:10:00,
2013-06-17 03:15:00,72.4,66.9,30.04,SW,225,2.0,-999.0,83,0.00,,,0.00,Wunderground v.1.15,2013-06-17 07:15:00,
2013-06-17 03:20:00,72.2,67.1,30.03,SW,225,3.0,-999.0,84,0.00,,,0.00,Wunderground v.1.15,2013-06-17 07:20:00,
2013-06-17 03:25:00,72.0,66.9,30.03,SW,225,2.0,-999.0,84,0.00,,,0.00,Wunderground v.1.15,2013-06-17 07:25:00,
2013-06-17 03:30:00,71.9,67.1,30.03,SW,225,2.0,-999.0,85,0.00,,,0.00,Wunderground v.1.15,2013-06-17 07:30:00,
2013-06-17 03:35:00,71.9,67.1,30.03,SW,225,2.0,-999.0,85,0.00,,,0.00,Wunderground v.1.15,2013-06-17 07:35:00,
2013-06-17 03:40:00,72.0,67.2,30.03,SW,225,3.0,-999.0,85,0.00,,,0.00,Wunderground v.1.15,2013-06-17 07:40:00,
2013-06-17 03:45:00,72.0,67.2,30.03,SW,225,3.0,-999.0,85,0.00,,,0.00,Wunderground v.1.15,2013-06-17 07:45:00,
2013-06-17 03:50:00,72.0,67.2,30.02,SSW,203,2.0,-999.0,85,0.00,,,0.00,Wunderground v.1.15,2013-06-17 07:50:00,
2013-06-17 03:55:00,72.0,67.6,30.02,SSW,203,2.0,-999.0,86,0.00,,,0.00,Wunderground v.1.15,2013-06-17 07:55:00,
2013-06-17 04:00:00,72.0,67.6,30.02,SSW,203,2.0,-999.0,86,0.00,,,0.00,Wunderground v.1.15,2013-06-17 08:00:00,
2013-06-17 04:05:00,72.1,67.7,30.02,SSW,203,2.0,-999.0,86,0.00,,,0.00,Wunderground v.1.15,2013-06-17 08:05:00,
2013-06-17 04:10:00,71.9,67.5,30.03,SSW,203,1.0,-999.0,86,0.00,,,0.00,Wunderground v.1.15,2013-06-17 08:10:00,
2013-06-17 04:15:00,71.8,67.4,30.03,SSW,203,1.0,-999.0,86,0.00,,,0.00,Wunderground v.1.15,2013-06-17 08:15:00,
2013-06-17 04:20:00,71.6,67.5,30.03,SSW,203,2.0,-999.0,87,0.00,,,0.00,Wunderground v.1.15,2013-06-17 08:20:00,
2013-06-17 04:25:00,71.5,67.4,30.03,SSW,203,2.0,-999.0,87,0.00,,,0.00,Wunderground v.1.15,2013-06-17 08:25:00,
2013-06-17 04:30:00,71.5,67.4,30.03,SSW,203,2.0,-999.0,87,0.00,,,0.00,Wunderground v.1.15,2013-06-17 08:30:00,
2013-06-17 04:35:00,71.4,67.3,30.03,SSW,203,2.0,-999.0,87,0.00,,,0.00,Wunderground v.1.15,2013-06-17 08:35:00,
2013-06-17 04:40:00,71.4,67.3,30.03,SSW,203,2.0,-999.0,87,0.00,,,0.00,Wunderground v.1.15,2013-06-17 08:40:00,
2013-06-17 04:45:00,71.2,67.5,30.03,WSW,248,2.0,-999.0,88,0.00,,,0.00,Wunderground v.1.15,2013-06-17 08:45:00,
2013-06-17 04:50:00,71.2,67.5,30.03,WSW,248,2.0,-999.0,88,0.00,,,0.00,Wunderground v.1.15,2013-06-17 08:50:00,
2013-06-17 04:55:00,71.1,67.4,30.03,WSW,248,1.0,-999.0,88,0.00,,,0.00,Wunderground v.1.15,2013-06-17 08:55:00,
2013-06-17 05:00:00,71.1,67.4,30.03,WSW,248,2.0,-999.0,88,0.00,,,0.00,Wunderground v.1.15,2013-06-17 09:00:00,
2013-06-17 05:05:00,71.0,67.6,30.03,WSW,248,1.0,-999.0,89,0.00,,,0.00,Wunderground v.1.15,2013-06-17 09:05:00,
2013-06-17 05:10:00,71.0,67.6,30.03,WSW,248,0.0,-999.0,89,0.00,,,0.00,Wunderground v.1.15,2013-06-17 09:10:00,
2013-06-17 05:15:00,70.9,67.5,30.03,WSW,248,1.0,-999.0,89,0.00,,,0.00,Wunderground v.1.15,2013-06-17 09:15:00,
2013-06-17 05:20:00,70.9,67.5,30.03,WSW,248,1.0,-999.0,89,0.00,,,0.00,Wunderground v.1.15,2013-06-17 09:20:00,
2013-06-17 05:25:00,70.9,67.5,30.03,WSW,248,1.0,-999.0,89,0.00,,,0.00,Wunderground v.1.15,2013-06-17 09:25:00,
2013-06-17 05:30:00,70.8,67.4,30.03,WSW,248,0.0,-999.0,89,0.00,,,0.00,Wunderground v.1.15,2013-06-17 09:30:00,
2013-06-17 05:35:00,70.8,67.4,30.03,WSW,248,0.0,-999.0,89,0.00,,,0.00,Wunderground v.1.15,2013-06-17 09:35:00,
2013-06-17 05:40:00,70.8,67.4,30.03,WSW,248,2.0,-999.0,89,0.00,,,0.00,Wunderground v.1.15,2013-06-17 09:40:00,
2013-06-17 05:45:00,70.8,67.4,30.03,WSW,248,1.0,-999.0,89,0.00,,,0.00,Wunderground v.1.15,2013-06-17 09:45:00,
2013-06-17 05:50:00,70.7,67.3,30.03,WSW,248,0.0,-999.0,89,0.00,,,0.00,Wunderground v.1.15,2013-06-17 09:50:00,
2013-06-17 05:55:00,70.6,67.5,30.03,WSW,248,0.0,-999.0,90,0.00,,,0.00,Wunderground v.1.15,2013-06-17 09:55:00,
2013-06-17 06:00:00,70.6,67.5,30.03,WSW,248,1.0,-999.0,90,0.00,,,0.00,Wunderground v.1.15,2013-06-17 10:00:00,
2013-06-17 06:05:00,70.6,67.5,30.03,WSW,248,1.0,-999.0,90,0.00,,,0.00,Wunderground v.1.15,2013-06-17 10:05:00,
2013-06-17 06:10:00,70.7,67.6,30.03,WSW,248,1.0,-999.0,90,0.00,,,0.00,Wunderground v.1.15,2013-06-17 10:10:00,
2013-06-17 06:15:00,70.7,67.6,30.04,WSW,248,1.0,-999.0,90,0.00,,,0.00,Wunderground v.1.15,2013-06-17 10:15:00,
2013-06-17 06:20:00,70.7,67.6,30.03,WSW,248,1.0,-999.0,90,0.00,,,0.00,Wunderground v.1.15,2013-06-17 10:20:00,
2013-06-17 06:25:00,70.8,67.7,30.03,WSW,248,1.0,-999.0,90,0.00,,,0.00,Wunderground v.1.15,2013-06-17 10:25:00,
2013-06-17 06:30:00,70.7,67.6,30.03,WSW,248,2.0,-999.0,90,0.00,,,0.00,Wunderground v.1.15,2013-06-17 10:30:00,
2013-06-17 06:35:00,70.8,67.7,30.03,WSW,248,2.0,-999.0,90,0.00,,,0.00,Wunderground v.1.15,2013-06-17 10:35:00,
2013-06-17 06:40:00,70.8,67.7,30.03,SW,225,2.0,-999.0,90,0.00,,,0.00,Wunderground v.1.15,2013-06-17 10:40:00,
2013-06-17 06:45:00,70.8,67.7,30.03,SW,225,1.0,-999.0,90,0.00,,,0.00,Wunderground v.1.15,2013-06-17 10:45:00,
2013-06-17 06:50:00,70.8,67.7,30.03,SW,225,2.0,-999.0,90,0.00,,,0.00,Wunderground v.1.15,2013-06-17 10:50:00,
2013-06-17 06:55:00,70.9,67.5,30.03,SW,225,2.0,-999.0,89,0.00,,,0.00,Wunderground v.1.15,2013-06-17 10:55:00,
2013-06-17 07:00:00,71.1,67.7,30.03,SW,225,1.0,-999.0,89,0.00,,,0.00,Wunderground v.1.15,2013-06-17 11:00:00,
2013-06-17 07:05:00,71.3,67.9,30.03,SW,225,2.0,-999.0,89,0.00,,,0.00,Wunderground v.1.15,2013-06-17 11:05:00,
2013-06-17 07:10:00,71.4,68.0,30.03,SW,225,2.0,-999.0,89,0.00,,,0.00,Wunderground v.1.15,2013-06-17 11:10:00,
2013-06-17 07:15:00,71.6,67.9,30.03,WSW,248,1.0,-999.0,88,0.00,,,0.00,Wunderground v.1.15,2013-06-17 11:15:00,
2013-06-17 07:20:00,71.7,68.0,30.03,WSW,248,3.0,-999.0,88,0.00,,,0.00,Wunderground v.1.15,2013-06-17 11:20:00,
2013-06-17 07:25:00,72.0,68.2,30.03,WSW,248,2.0,-999.0,88,0.00,,,0.00,Wunderground v.1.15,2013-06-17 11:25:00,
2013-06-17 07:30:00,72.3,68.5,30.03,SW,225,3.0,-999.0,88,0.00,,,0.00,Wunderground v.1.15,2013-06-17 11:30:00,
2013-06-17 07:35:00,72.6,68.5,30.04,SW,225,3.0,-999.0,87,0.00,,,0.00,Wunderground v.1.15,2013-06-17 11:35:00,
2013-06-17 07:40:00,72.9,68.5,30.04,WSW,248,3.0,-999.0,86,0.00,,,0.00,Wunderground v.1.15,2013-06-17 11:40:00,
2013-06-17 07:45:00,73.2,68.8,30.04,SW,225,3.0,-999.0,86,0.00,,,0.00,Wunderground v.1.15,2013-06-17 11:45:00,
2013-06-17 07:50:00,73.5,68.7,30.04,SSW,203,3.0,-999.0,85,0.00,,,0.00,Wunderground v.1.15,2013-06-17 11:50:00,
2013-06-17 07:55:00,73.9,69.1,30.04,West,270,4.0,-999.0,85,0.00,,,0.00,Wunderground v.1.15,2013-06-17 11:55:00,
2013-06-17 08:00:00,73.9,69.1,30.04,WSW,248,4.0,-999.0,85,0.00,,,0.00,Wunderground v.1.15,2013-06-17 12:00:00,
2013-06-17 08:05:00,74.2,69.1,30.04,WSW,248,4.0,-999.0,84,0.00,,,0.00,Wunderground v.1.15,2013-06-17 12:05:00,
2013-06-17 08:10:00,74.6,69.4,30.04,SW,225,4.0,-999.0,84,0.00,,,0.00,Wunderground v.1.15,2013-06-17 12:10:00,
2013-06-17 08:15:00,75.0,69.5,30.04,SW,225,5.0,-999.0,83,0.00,,,0.00,Wunderground v.1.15,2013-06-17 12:15:00,
2013-06-17 08:20:00,75.3,69.8,30.04,SW,225,5.0,-999.0,83,0.00,,,0.00,Wunderground v.1.15,2013-06-17 12:20:00,
2013-06-17 08:25:00,75.7,69.8,30.04,SW,225,5.0,-999.0,82,0.00,,,0.00,Wunderground v.1.15,2013-06-17 12:25:00,
2013-06-17 08:30:00,75.7,69.8,30.04,SW,225,6.0,-999.0,82,0.00,,,0.00,Wunderground v.1.15,2013-06-17 12:30:00,
2013-06-17 08:35:00,76.2,70.3,30.04,WSW,248,4.0,-999.0,82,0.00,,,0.00,Wunderground v.1.15,2013-06-17 12:35:00,
2013-06-17 08:40:00,76.5,70.6,30.04,WSW,248,4.0,-999.0,82,0.00,,,0.00,Wunderground v.1.15,2013-06-17 12:40:00,
2013-06-17 08:45:00,76.8,70.5,30.04,West,270,4.0,-999.0,81,0.00,,,0.00,Wunderground v.1.15,2013-06-17 12:45:00,
2013-06-17 08:50:00,76.9,70.6,30.04,West,270,5.0,-999.0,81,0.00,,,0.00,Wunderground v.1.15,2013-06-17 12:50:00,
2013-06-17 08:55:00,77.1,70.5,30.04,WSW,248,5.0,-999.0,80,0.00,,,0.00,Wunderground v.1.15,2013-06-17 12:55:00,
2013-06-17 09:00:00,77.3,71.0,30.04,West,270,5.0,-999.0,81,0.00,,,0.00,Wunderground v.1.15,2013-06-17 13:00:00,
2013-06-17 09:05:00,77.5,70.8,30.04,West,270,5.0,-999.0,80,0.00,,,0.00,Wunderground v.1.15,2013-06-17 13:05:00,
2013-06-17 09:10:00,77.6,70.9,30.04,West,270,5.0,-999.0,80,0.00,,,0.00,Wunderground v.1.15,2013-06-17 13:10:00,
2013-06-17 09:15:00,78.0,71.3,30.04,WSW,248,5.0,-999.0,80,0.00,,,0.00,Wunderground v.1.15,2013-06-17 13:15:00,
2013-06-17 09:20:00,78.3,71.2,30.04,West,270,5.0,-999.0,79,0.00,,,0.00,Wunderground v.1.15,2013-06-17 13:20:00,
2013-06-17 09:25:00,78.3,71.2,30.04,West,270,5.0,-999.0,79,0.00,,,0.00,Wunderground v.1.15,2013-06-17 13:25:00,
2013-06-17 09:30:00,77.9,70.9,30.04,West,270,6.0,-999.0,79,0.00,,,0.00,Wunderground v.1.15,2013-06-17 13:30:00,
2013-06-17 09:35:00,77.7,71.0,30.04,West,270,7.0,-999.0,80,0.00,,,0.00,Wunderground v.1.15,2013-06-17 13:35:00,
2013-06-17 09:40:00,77.9,70.9,30.03,WSW,248,7.0,-999.0,79,0.00,,,0.00,Wunderground v.1.15,2013-06-17 13:40:00,
2013-06-17 09:45:00,78.3,71.2,30.03,WSW,248,6.0,-999.0,79,0.00,,,0.00,Wunderground v.1.15,2013-06-17 13:45:00,
2013-06-17 09:50:00,78.9,71.5,30.03,West,270,5.0,-999.0,78,0.00,,,0.00,Wunderground v.1.15,2013-06-17 13:50:00,
2013-06-17 09:55:00,79.2,71.4,30.03,West,270,6.0,-999.0,77,0.00,,,0.00,Wunderground v.1.15,2013-06-17 13:55:00,
2013-06-17 10:00:00,79.2,71.0,30.03,West,270,8.0,-999.0,76,0.00,,,0.00,Wunderground v.1.15,2013-06-17 14:00:00,
2013-06-17 10:05:00,79.5,71.3,30.03,West,270,8.0,-999.0,76,0.00,,,0.00,Wunderground v.1.15,2013-06-17 14:05:00,
2013-06-17 10:10:00,79.3,70.7,30.03,West,270,7.0,-999.0,75,0.00,,,0.00,Wunderground v.1.15,2013-06-17 14:10:00,
2013-06-17 10:15:00,79.7,71.5,30.02,WSW,248,6.0,-999.0,76,0.00,,,0.00,Wunderground v.1.15,2013-06-17 14:15:00,
2013-06-17 10:20:00,79.9,70.9,30.02,SW,225,6.0,-999.0,74,0.00,,,0.00,Wunderground v.1.15,2013-06-17 14:20:00,
2013-06-17 10:25:00,80.6,71.5,30.02,West,270,5.0,-999.0,74,0.00,,,0.00,Wunderground v.1.15,2013-06-17 14:25:00,
2013-06-17 10:30:00,80.6,70.7,30.02,West,270,5.0,-999.0,72,0.00,,,0.00,Wunderground v.1.15,2013-06-17 14:30:00,
2013-06-17 10:35:00,80.6,71.1,30.02,West,270,5.0,-999.0,73,0.00,,,0.00,Wunderground v.1.15,2013-06-17 14:35:00,
2013-06-17 10:40:00,80.3,70.9,30.02,West,270,4.0,-999.0,73,0.00,,,0.00,Wunderground v.1.15,2013-06-17 14:40:00,
2013-06-17 10:45:00,80.7,70.4,30.02,West,270,7.0,-999.0,71,0.00,,,0.00,Wunderground v.1.15,2013-06-17 14:45:00,
2013-06-17 10:50:00,81.4,70.2,30.02,SW,225,6.0,-999.0,69,0.00,,,0.00,Wunderground v.1.15,2013-06-17 14:50:00,
2013-06-17 10:55:00,81.2,70.1,30.02,WSW,248,5.0,-999.0,69,0.00,,,0.00,Wunderground v.1.15,2013-06-17 14:55:00,
2013-06-17 11:00:00,81.6,71.7,30.02,NW,315,3.0,-999.0,72,0.00,,,0.00,Wunderground v.1.15,2013-06-17 15:00:00,
2013-06-17 11:05:00,81.9,69.4,30.02,WSW,248,6.0,-999.0,66,0.00,,,0.00,Wunderground v.1.15,2013-06-17 15:05:00,
2013-06-17 11:10:00,81.7,69.2,30.02,WSW,248,5.0,-999.0,66,0.00,,,0.00,Wunderground v.1.15,2013-06-17 15:10:00,
2013-06-17 11:15:00,81.6,70.4,30.01,WSW,248,4.0,-999.0,69,0.00,,,0.00,Wunderground v.1.15,2013-06-17 15:15:00,
2013-06-17 11:20:00,81.8,71.1,30.02,WNW,293,5.0,-999.0,70,0.00,,,0.00,Wunderground v.1.15,2013-06-17 15:20:00,
2013-06-17 11:25:00,81.7,71.0,30.01,SW,225,5.0,-999.0,70,0.00,,,0.00,Wunderground v.1.15,2013-06-17 15:25:00,
2013-06-17 11:30:00,82.5,70.4,30.02,West,270,5.0,-999.0,67,0.00,,,0.00,Wunderground v.1.15,2013-06-17 15:30:00,
2013-06-17 11:35:00,82.4,69.9,30.02,West,270,4.0,-999.0,66,0.00,,,0.00,Wunderground v.1.15,2013-06-17 15:35:00,
2013-06-17 11:40:00,82.6,70.5,30.01,SW,225,6.0,-999.0,67,0.00,,,0.00,Wunderground v.1.15,2013-06-17 15:40:00,
2013-06-17 11:45:00,82.8,70.7,30.01,SW,225,4.0,-999.0,67,0.00,,,0.00,Wunderground v.1.15,2013-06-17 15:45:00,
2013-06-17 11:50:00,82.9,70.4,30.01,SW,225,5.0,-999.0,66,0.00,,,0.00,Wunderground v.1.15,2013-06-17 15:50:00,
2013-06-17 11:55:00,83.5,70.5,30.01,SW,225,6.0,-999.0,65,0.00,,,0.00,Wunderground v.1.15,2013-06-17 15:55:00,
2013-06-17 12:00:00,83.0,70.5,30.01,SW,225,4.0,-999.0,66,0.00,,,0.00,Wunderground v.1.15,2013-06-17 16:00:00,
2013-06-17 12:05:00,82.9,70.8,30.01,SW,225,5.0,-999.0,67,0.00,,,0.00,Wunderground v.1.15,2013-06-17 16:05:00,
2013-06-17 12:10:00,82.9,69.9,30.01,SSW,203,7.0,-999.0,65,0.00,,,0.00,Wunderground v.1.15,2013-06-17 16:10:00,
2013-06-17 12:15:00,83.3,70.3,30.01,SW,225,7.0,-999.0,65,0.00,,,0.00,Wunderground v.1.15,2013-06-17 16:15:00,
2013-06-17 12:20:00,83.4,70.4,30.01,West,270,6.0,-999.0,65,0.00,,,0.00,Wunderground v.1.15,2013-06-17 16:20:00,
2013-06-17 12:25:00,83.6,71.0,30.01,WSW,248,4.0,-999.0,66,0.00,,,0.00,Wunderground v.1.15,2013-06-17 16:25:00,
2013-06-17 12:30:00,83.8,70.8,30.01,SSW,203,4.0,-999.0,65,0.00,,,0.00,Wunderground v.1.15,2013-06-17 16:30:00,
2013-06-17 12:35:00,83.8,71.2,30.01,SSW,203,4.0,-999.0,66,0.00,,,0.00,Wunderground v.1.15,2013-06-17 16:35:00,
2013-06-17 12:40:00,84.1,71.5,30.01,SSW,203,5.0,-999.0,66,0.00,,,0.00,Wunderground v.1.15,2013-06-17 16:40:00,
2013-06-17 12:45:00,84.5,71.0,30.01,WSW,248,5.0,-999.0,64,0.00,,,0.00,Wunderground v.1.15,2013-06-17 16:45:00,
2013-06-17 12:50:00,83.8,70.8,30.01,WSW,248,4.0,-999.0,65,0.00,,,0.00,Wunderground v.1.15,2013-06-17 16:50:00,
2013-06-17 12:55:00,83.4,70.8,30.01,West,270,3.0,-999.0,66,0.00,,,0.00,Wunderground v.1.15,2013-06-17 16:55:00,
2013-06-17 13:00:00,83.3,71.2,30.00,NW,315,2.0,-999.0,67,0.00,,,0.00,Wunderground v.1.15,2013-06-17 17:00:00,
2013-06-17 13:05:00,83.5,70.9,30.00,SW,225,4.0,-999.0,66,0.00,,,0.00,Wunderground v.1.15,2013-06-17 17:05:00,
2013-06-17 13:10:00,83.8,70.8,30.00,WSW,248,4.0,-999.0,65,0.00,,,0.00,Wunderground v.1.15,2013-06-17 17:10:00,
2013-06-17 13:15:00,83.7,70.2,30.00,WSW,248,5.0,-999.0,64,0.00,,,0.00,Wunderground v.1.15,2013-06-17 17:15:00,
2013-06-17 13:20:00,84.3,70.8,30.00,SSW,203,5.0,-999.0,64,0.00,,,0.00,Wunderground v.1.15,2013-06-17 17:20:00,
2013-06-17 13:25:00,84.9,71.8,30.00,SW,225,4.0,-999.0,65,0.00,,,0.00,Wunderground v.1.15,2013-06-17 17:25:00,
2013-06-17 13:30:00,85.1,71.5,30.00,SW,225,6.0,-999.0,64,0.00,,,0.00,Wunderground v.1.15,2013-06-17 17:30:00,
2013-06-17 13:35:00,84.7,71.2,30.00,SW,225,8.0,-999.0,64,0.00,,,0.00,Wunderground v.1.15,2013-06-17 17:35:00,
2013-06-17 13:40:00,84.9,73.2,29.99,SSW,203,5.0,-999.0,68,0.00,,,0.00,Wunderground v.1.15,2013-06-17 17:40:00,
2013-06-17 13:45:00,83.6,72.3,29.99,SSE,158,9.0,-999.0,69,0.00,,,0.00,Wunderground v.1.15,2013-06-17 17:45:00,
2013-06-17 13:50:00,82.8,72.8,30.00,SSE,158,8.0,-999.0,72,0.00,,,0.00,Wunderground v.1.15,2013-06-17 17:50:00,
2013-06-17 13:55:00,82.8,72.4,29.99,SSE,158,6.0,-999.0,71,0.00,,,0.00,Wunderground v.1.15,2013-06-17 17:55:00,
2013-06-17 14:00:00,82.3,72.8,29.99,South,180,6.0,-999.0,73,0.00,,,0.00,Wunderground v.1.15,2013-06-17 18:00:00,
2013-06-17 14:05:00,83.2,73.2,29.99,SSE,158,8.0,-999.0,72,0.00,,,0.00,Wunderground v.1.15,2013-06-17 18:05:00,
2013-06-17 14:10:00,83.8,73.8,29.99,SSE,158,8.0,-999.0,72,0.00,,,0.00,Wunderground v.1.15,2013-06-17 18:10:00,
2013-06-17 14:15:00,83.3,73.3,29.99,SSE,158,8.0,-999.0,72,0.00,,,0.00,Wunderground v.1.15,2013-06-17 18:15:00,
2013-06-17 14:20:00,83.3,73.7,29.99,South,180,6.0,-999.0,73,0.00,,,0.00,Wunderground v.1.15,2013-06-17 18:20:00,
2013-06-17 14:25:00,82.8,73.7,29.99,SSE,158,7.0,-999.0,74,0.00,,,0.00,Wunderground v.1.15,2013-06-17 18:25:00,
2013-06-17 14:30:00,82.7,74.0,29.99,SSE,158,5.0,-999.0,75,0.00,,,0.00,Wunderground v.1.15,2013-06-17 18:30:00,
2013-06-17 14:35:00,82.9,74.2,29.99,SSE,158,6.0,-999.0,75,0.00,,,0.00,Wunderground v.1.15,2013-06-17 18:35:00,
2013-06-17 14:40:00,82.7,72.3,29.99,SSW,203,7.0,-999.0,71,0.00,,,0.00,Wunderground v.1.15,2013-06-17 18:40:00,
2013-06-17 14:45:00,82.5,73.4,29.99,SSW,203,11.0,-999.0,74,0.00,,,0.00,Wunderground v.1.15,2013-06-17 18:45:00,
2013-06-17 14:50:00,81.9,74.4,29.99,SSW,203,10.0,-999.0,78,0.00,,,0.00,Wunderground v.1.15,2013-06-17 18:50:00,
2013-06-17 14:55:00,80.5,74.1,29.99,SSW,203,8.0,-999.0,81,0.00,,,0.00,Wunderground v.1.15,2013-06-17 18:55:00,
2013-06-17 15:00:00,80.5,74.1,29.98,SSW,203,6.0,-999.0,81,0.00,,,0.00,Wunderground v.1.15,2013-06-17 19:00:00,
2013-06-17 15:05:00,80.8,74.4,29.98,SSW,203,7.0,-999.0,81,0.00,,,0.00,Wunderground v.1.15,2013-06-17 19:05:00,
2013-06-17 15:10:00,81.0,74.6,29.98,South,180,6.0,-999.0,81,0.00,,,0.00,Wunderground v.1.15,2013-06-17 19:10:00,
2013-06-17 15:15:00,81.1,74.3,29.98,SSW,203,6.0,-999.0,80,0.00,,,0.00,Wunderground v.1.15,2013-06-17 19:15:00,
2013-06-17 15:20:00,81.1,74.7,29.98,South,180,5.0,-999.0,81,0.00,,,0.00,Wunderground v.1.15,2013-06-17 19:20:00,
2013-06-17 15:25:00,82.6,76.2,29.97,SSW,203,5.0,-999.0,81,0.00,,,0.00,Wunderground v.1.15,2013-06-17 19:25:00,
2013-06-17 15:30:00,83.0,75.0,29.97,SSW,203,6.0,-999.0,77,0.00,,,0.00,Wunderground v.1.15,2013-06-17 19:30:00,
2013-06-17 15:35:00,83.0,75.0,29.96,SSW,203,8.0,-999.0,77,0.00,,,0.00,Wunderground v.1.15,2013-06-17 19:35:00,
2013-06-17 15:40:00,83.7,74.5,29.96,SSE,158,7.0,-999.0,74,0.00,,,0.00,Wunderground v.1.15,2013-06-17 19:40:00,
2013-06-17 15:45:00,84.2,73.8,29.96,SSW,203,6.0,-999.0,71,0.00,,,0.00,Wunderground v.1.15,2013-06-17 19:45:00,
2013-06-17 15:50:00,84.3,74.3,29.95,SSE,158,7.0,-999.0,72,0.00,,,0.00,Wunderground v.1.15,2013-06-17 19:50:00,
2013-06-17 15:55:00,83.9,73.9,29.95,South,180,7.0,-999.0,72,0.00,,,0.00,Wunderground v.1.15,2013-06-17 19:55:00,
2013-06-17 16:00:00,83.4,73.8,29.95,SSE,158,7.0,-999.0,73,0.00,,,0.00,Wunderground v.1.15,2013-06-17 20:00:00,
2013-06-17 16:05:00,81.6,72.5,29.95,SSW,203,11.0,-999.0,74,0.00,,,0.00,Wunderground v.1.15,2013-06-17 20:05:00,
2013-06-17 16:10:00,80.4,72.1,29.96,SSW,203,10.0,-999.0,76,0.00,,,0.00,Wunderground v.1.15,2013-06-17 20:10:00,
2013-06-17 16:15:00,80.4,72.5,29.96,SSW,203,7.0,-999.0,77,0.00,,,0.00,Wunderground v.1.15,2013-06-17 20:15:00,
2013-06-17 16:20:00,80.8,73.7,29.95,South,180,5.0,-999.0,79,0.00,,,0.00,Wunderground v.1.15,2013-06-17 20:20:00,
2013-06-17 16:25:00,80.4,73.7,29.95,SSE,158,7.0,-999.0,80,0.00,,,0.00,Wunderground v.1.15,2013-06-17 20:25:00,
2013-06-17 16:30:00,80.5,74.1,29.95,SSE,158,6.0,-999.0,81,0.00,,,0.00,Wunderground v.1.15,2013-06-17 20:30:00,
2013-06-17 16:35:00,80.8,74.4,29.94,SSE,158,7.0,-999.0,81,0.00,,,0.00,Wunderground v.1.15,2013-06-17 20:35:00,
2013-06-17 16:40:00,81.9,75.5,29.94,SSE,158,8.0,-999.0,81,0.00,,,0.00,Wunderground v.1.15,2013-06-17 20:40:00,
2013-06-17 16:45:00,81.9,74.4,29.94,SSW,203,8.0,-999.0,78,0.00,,,0.00,Wunderground v.1.15,2013-06-17 20:45:00,
2013-06-17 16:50:00,81.0,73.9,29.94,SSW,203,8.0,-999.0,79,0.00,,,0.00,Wunderground v.1.15,2013-06-17 20:50:00,
2013-06-17 16:55:00,80.8,72.9,29.94,SSW,203,8.0,-999.0,77,0.00,,,0.00,Wunderground v.1.15,2013-06-17 20:55:00,
2013-06-17 17:00:00,81.8,73.5,29.93,SSE,158,7.0,-999.0,76,0.00,,,0.00,Wunderground v.1.15,2013-06-17 21:00:00,
2013-06-17 17:05:00,82.3,73.6,29.93,SSW,203,8.0,-999.0,75,0.00,,,0.00,Wunderground v.1.15,2013-06-17 21:05:00,
2013-06-17 17:10:00,82.6,73.5,29.93,South,180,7.0,-999.0,74,0.00,,,0.00,Wunderground v.1.15,2013-06-17 21:10:00,
2013-06-17 17:15:00,83.3,74.1,29.93,SSE,158,6.0,-999.0,74,0.00,,,0.00,Wunderground v.1.15,2013-06-17 21:15:00,
2013-06-17 17:20:00,83.5,73.1,29.94,SSW,203,7.0,-999.0,71,0.00,,,0.00,Wunderground v.1.15,2013-06-17 21:20:00,
2013-06-17 17:25:00,83.9,73.1,29.94,SSW,203,5.0,-999.0,70,0.00,,,0.00,Wunderground v.1.15,2013-06-17 21:25:00,
2013-06-17 17:30:00,84.2,72.5,29.94,SSW,203,5.0,-999.0,68,0.00,,,0.00,Wunderground v.1.15,2013-06-17 21:30:00,
2013-06-17 17:35:00,83.8,73.0,29.94,SSW,203,6.0,-999.0,70,0.00,,,0.00,Wunderground v.1.15,2013-06-17 21:35:00,
2013-06-17 17:40:00,83.6,72.3,29.94,SSW,203,7.0,-999.0,69,0.00,,,0.00,Wunderground v.1.15,2013-06-17 21:40:00,
2013-06-17 17:45:00,83.6,71.9,29.93,SSE,158,7.0,-999.0,68,0.00,,,0.00,Wunderground v.1.15,2013-06-17 21:45:00,
2013-06-17 17:50:00,83.2,72.0,29.94,SSE,158,7.0,-999.0,69,0.00,,,0.00,Wunderground v.1.15,2013-06-17 21:50:00,
2013-06-17 17:55:00,83.2,72.8,29.94,SSE,158,4.0,-999.0,71,0.00,,,0.00,Wunderground v.1.15,2013-06-17 21:55:00,
2013-06-17 18:00:00,83.4,72.6,29.93,SSW,203,7.0,-999.0,70,0.00,,,0.00,Wunderground v.1.15,2013-06-17 22:00:00,
2013-06-17 18:05:00,83.3,71.6,29.93,SSW,203,7.0,-999.0,68,0.00,,,0.00,Wunderground v.1.15,2013-06-17 22:05:00,
2013-06-17 18:10:00,83.2,71.1,29.94,SSW,203,7.0,-999.0,67,0.00,,,0.00,Wunderground v.1.15,2013-06-17 22:10:00,
2013-06-17 18:15:00,82.8,71.6,29.94,SSW,203,6.0,-999.0,69,0.00,,,0.00,Wunderground v.1.15,2013-06-17 22:15:00,
2013-06-17 18:20:00,82.8,72.0,29.94,South,180,4.0,-999.0,70,0.00,,,0.00,Wunderground v.1.15,2013-06-17 22:20:00,
2013-06-17 18:25:00,82.5,72.1,29.94,SSW,203,5.0,-999.0,71,0.00,,,0.00,Wunderground v.1.15,2013-06-17 22:25:00,
2013-06-17 18:30:00,82.1,71.8,29.95,SSW,203,7.0,-999.0,71,0.00,,,0.00,Wunderground v.1.15,2013-06-17 22:30:00,
2013-06-17 18:35:00,82.0,71.7,29.94,SSW,203,6.0,-999.0,71,0.00,,,0.00,Wunderground v.1.15,2013-06-17 22:35:00,
2013-06-17 18:40:00,81.9,72.0,29.94,SSW,203,6.0,-999.0,72,0.00,,,0.00,Wunderground v.1.15,2013-06-17 22:40:00,
2013-06-17 18:45:00,81.9,72.4,29.95,SSE,158,6.0,-999.0,73,0.00,,,0.00,Wunderground v.1.15,2013-06-17 22:45:00,
2013-06-17 18:50:00,81.8,72.3,29.94,South,180,6.0,-999.0,73,0.00,,,0.00,Wunderground v.1.15,2013-06-17 22:50:00,
2013-06-17 18:55:00,81.4,71.9,29.94,SSW,203,6.0,-999.0,73,0.00,,,0.00,Wunderground v.1.15,2013-06-17 22:55:00,
2013-06-17 19:00:00,81.1,72.0,29.94,SSW,203,7.0,-999.0,74,0.00,,,0.00,Wunderground v.1.15,2013-06-17 23:00:00,
2013-06-17 19:05:00,80.7,72.0,29.94,South,180,6.0,-999.0,75,0.00,,,0.00,Wunderground v.1.15,2013-06-17 23:05:00,
2013-06-17 19:10:00,80.4,72.5,29.94,SSW,203,6.0,-999.0,77,0.00,,,0.00,Wunderground v.1.15,2013-06-17 23:10:00,
2013-06-17 19:15:00,80.2,72.7,29.95,SSW,203,6.0,-999.0,78,0.00,,,0.00,Wunderground v.1.15,2013-06-17 23:15:00,
2013-06-17 19:20:00,80.1,72.6,29.95,SSW,203,6.0,-999.0,78,0.00,,,0.00,Wunderground v.1.15,2013-06-17 23:20:00,
2013-06-17 19:25:00,80.0,72.9,29.95,SSW,203,7.0,-999.0,79,0.00,,,0.00,Wunderground v.1.15,2013-06-17 23:25:00,
2013-06-17 19:30:00,79.8,72.7,29.94,SSE,158,6.0,-999.0,79,0.00,,,0.00,Wunderground v.1.15,2013-06-17 23:30:00,
2013-06-17 19:35:00,79.6,72.9,29.94,South,180,6.0,-999.0,80,0.00,,,0.00,Wunderground v.1.15,2013-06-17 23:35:00,
2013-06-17 19:40:00,79.5,73.2,29.95,South,180,5.0,-999.0,81,0.00,,,0.00,Wunderground v.1.15,2013-06-17 23:40:00,
2013-06-17 19:45:00,79.3,73.0,29.95,SSW,203,6.0,-999.0,81,0.00,,,0.00,Wunderground v.1.15,2013-06-17 23:45:00,
2013-06-17 19:50:00,79.2,72.9,29.95,SSW,203,6.0,-999.0,81,0.00,,,0.00,Wunderground v.1.15,2013-06-17 23:50:00,
2013-06-17 19:55:00,79.1,72.8,29.95,SSW,203,6.0,-999.0,81,0.00,,,0.00,Wunderground v.1.15,2013-06-17 23:55:00,
2013-06-17 20:00:00,79.0,73.0,29.95,SSW,203,7.0,-999.0,82,0.00,,,0.00,Wunderground v.1.15,2013-06-18 00:00:00,
2013-06-17 20:05:00,78.9,72.9,29.96,SSW,203,8.0,-999.0,82,0.00,,,0.00,Wunderground v.1.15,2013-06-18 00:05:00,
2013-06-17 20:10:00,78.9,72.9,29.95,SSW,203,6.0,-999.0,82,0.00,,,0.00,Wunderground v.1.15,2013-06-18 00:10:00,
2013-06-17 20:15:00,78.8,73.2,29.96,SSW,203,8.0,-999.0,83,0.00,,,0.00,Wunderground v.1.15,2013-06-18 00:15:00,
2013-06-17 20:20:00,78.8,73.2,29.96,SSW,203,8.0,-999.0,83,0.00,,,0.00,Wunderground v.1.15,2013-06-18 00:20:00,
2013-06-17 20:25:00,78.7,73.1,29.96,SSW,203,9.0,-999.0,83,0.00,,,0.00,Wunderground v.1.15,2013-06-18 00:25:00,
2013-06-17 20:30:00,78.7,73.5,29.96,SW,225,7.0,-999.0,84,0.00,,,0.00,Wunderground v.1.15,2013-06-18 00:30:00,
2013-06-17 20:35:00,78.4,73.5,29.97,SW,225,5.0,-999.0,85,0.00,,,0.00,Wunderground v.1.15,2013-06-18 00:35:00,
2013-06-17 20:40:00,78.1,73.2,29.97,SW,225,5.0,-999.0,85,0.00,,,0.00,Wunderground v.1.15,2013-06-18 00:40:00,
2013-06-17 20:45:00,77.7,73.5,29.97,SW,225,4.0,-999.0,87,0.00,,,0.00,Wunderground v.1.15,2013-06-18 00:45:00,
2013-06-17 20:50:00,77.5,73.7,29.97,SW,225,3.0,-999.0,88,0.00,,,0.00,Wunderground v.1.15,2013-06-18 00:50:00,
2013-06-17 20:55:00,77.2,73.4,29.97,SW,225,3.0,-999.0,88,0.00,,,0.00,Wunderground v.1.15,2013-06-18 00:55:00,
2013-06-17 21:00:00,77.0,73.5,29.97,SW,225,3.0,-999.0,89,0.00,,,0.00,Wunderground v.1.15,2013-06-18 01:00:00,
2013-06-17 21:05:00,76.8,73.6,29.97,SW,225,3.0,-999.0,90,0.00,,,0.00,Wunderground v.1.15,2013-06-18 01:05:00,
2013-06-17 21:10:00,76.7,73.5,29.97,SW,225,1.0,-999.0,90,0.00,,,0.00,Wunderground v.1.15,2013-06-18 01:10:00,
2013-06-17 21:15:00,76.7,73.9,29.98,SW,225,2.0,-999.0,91,0.00,,,0.00,Wunderground v.1.15,2013-06-18 01:15:00,
2013-06-17 21:20:00,76.6,73.8,29.98,SW,225,2.0,-999.0,91,0.00,,,0.00,Wunderground v.1.15,2013-06-18 01:20:00,
2013-06-17 21:25:00,76.5,73.7,29.98,SW,225,2.0,-999.0,91,0.00,,,0.00,Wunderground v.1.15,2013-06-18 01:25:00,
2013-06-17 21:30:00,76.5,74.0,29.98,SSW,203,2.0,-999.0,92,0.00,,,0.00,Wunderground v.1.15,2013-06-18 01:30:00,
2013-06-17 21:35:00,76.5,74.0,29.98,SSW,203,2.0,-999.0,92,0.00,,,0.00,Wunderground v.1.15,2013-06-18 01:35:00,
2013-06-17 21:40:00,76.6,74.1,29.99,SSW,203,2.0,-999.0,92,0.00,,,0.00,Wunderground v.1.15,2013-06-18 01:40:00,
2013-06-17 21:45:00,76.5,74.0,29.99,SSW,203,2.0,-999.0,92,0.00,,,0.00,Wunderground v.1.15,2013-06-18 01:45:00,
2013-06-17 21:50:00,76.5,74.0,29.99,SSW,203,2.0,-999.0,92,0.00,,,0.00,Wunderground v.1.15,2013-06-18 01:50:00,
2013-06-17 21:55:00,76.6,74.1,29.99,SSW,203,0.0,-999.0,92,0.00,,,0.00,Wunderground v.1.15,2013-06-18 01:55:00,
2013-06-17 22:00:00,76.6,74.1,29.99,South,180,1.0,-999.0,92,0.00,,,0.00,Wunderground v.1.15,2013-06-18 02:00:00,
2013-06-17 22:05:00,76.6,74.1,29.99,South,180,1.0,-999.0,92,0.00,,,0.00,Wunderground v.1.15,2013-06-18 02:05:00,
2013-06-17 22:10:00,76.5,74.0,29.99,South,180,1.0,-999.0,92,0.00,,,0.00,Wunderground v.1.15,2013-06-18 02:10:00,
2013-06-17 22:15:00,76.5,74.0,29.99,South,180,2.0,-999.0,92,0.00,,,0.00,Wunderground v.1.15,2013-06-18 02:15:00,
2013-06-17 22:20:00,76.5,74.0,29.99,South,180,1.0,-999.0,92,0.00,,,0.00,Wunderground v.1.15,2013-06-18 02:20:00,
2013-06-17 22:25:00,76.6,74.1,29.99,South,180,1.0,-999.0,92,0.00,,,0.00,Wunderground v.1.15,2013-06-18 02:25:00,
2013-06-17 22:30:00,76.5,74.0,29.99,South,180,1.0,-999.0,92,0.00,,,0.00,Wunderground v.1.15,2013-06-18 02:30:00,
2013-06-17 22:35:00,76.4,73.9,29.99,South,180,2.0,-999.0,92,0.00,,,0.00,Wunderground v.1.15,2013-06-18 02:35:00,
2013-06-17 22:40:00,76.4,73.9,29.99,South,180,3.0,-999.0,92,0.00,,,0.00,Wunderground v.1.15,2013-06-18 02:40:00,
2013-06-17 22:45:00,76.4,73.9,29.99,South,180,1.0,-999.0,92,0.00,,,0.00,Wunderground v.1.15,2013-06-18 02:45:00,
2013-06-17 22:50:00,76.5,74.0,29.99,South,180,0.0,-999.0,92,0.00,,,0.00,Wunderground v.1.15,2013-06-18 02:50:00,
2013-06-17 22:55:00,76.5,74.3,29.99,South,180,0.0,-999.0,93,0.00,,,0.00,Wunderground v.1.15,2013-06-18 02:55:00,
2013-06-17 23:00:00,76.4,74.2,29.99,SSW,203,1.0,-999.0,93,0.00,,,0.00,Wunderground v.1.15,2013-06-18 03:00:00,
2013-06-17 23:05:00,76.4,74.2,29.99,SSW,203,1.0,-999.0,93,0.00,,,0.00,Wunderground v.1.15,2013-06-18 03:05:00,
2013-06-17 23:10:00,76.4,74.2,29.99,SSW,203,2.0,-999.0,93,0.00,,,0.00,Wunderground v.1.15,2013-06-18 03:10:00,
2013-06-17 23:15:00,76.4,74.2,29.99,SSW,203,2.0,-999.0,93,0.00,,,0.00,Wunderground v.1.15,2013-06-18 03:15:00,
2013-06-17 23:20:00,76.4,74.2,29.99,SW,225,3.0,-999.0,93,0.00,,,0.00,Wunderground v.1.15,2013-06-18 03:20:00,
2013-06-17 23:25:00,76.4,74.2,29.99,SW,225,2.0,-999.0,93,0.00,,,0.00,Wunderground v.1.15,2013-06-18 03:25:00,
2013-06-17 23:30:00,76.5,74.3,29.99,SW,225,3.0,-999.0,93,0.00,,,0.00,Wunderground v.1.15,2013-06-18 03:30:00,
2013-06-17 23:35:00,76.4,73.9,29.99,SW,225,4.0,-999.0,92,0.00,,,0.00,Wunderground v.1.15,2013-06-18 03:35:00,
2013-06-17 23:40:00,76.4,74.2,29.99,SW,225,3.0,-999.0,93,0.00,,,0.00,Wunderground v.1.15,2013-06-18 03:40:00,
2013-06-17 23:45:00,76.4,74.2,29.98,SW,225,3.0,-999.0,93,0.00,,,0.00,Wunderground v.1.15,2013-06-18 03:45:00,
2013-06-17 23:50:00,76.3,74.1,29.98,SW,225,3.0,-999.0,93,0.00,,,0.00,Wunderground v.1.15,2013-06-18 03:50:00,
2013-06-17 23:55:00,76.2,74.0,29.98,SW,225,2.0,-999.0,93,0.00,,,0.00,Wunderground v.1.15,2013-06-18 03:55:00,